Tracking 28096 objects as of 29-Sep-2023
HD Live streaming from Space Station
objects crossing your sky now

FLOCK 4X 25

Track FLOCK 4X 25 now!
10-day predictions


NORAD ID: 51016
Int'l Code: 2022-002AJ
Perigee: 471.2 km
Apogee: 481.9 km
Inclination: 97.4 °
Period: 94.0 minutes
Semi major axis: 6847 km
RCS: Unknown
Launch date: January 13, 2022
Source: United States (US)
Launch site: AIR FORCE EASTERN TEST RANGE (AFETR)
Your satellite tracking list
Your tracking list is empty




NASA's NSSDC Master Catalog

Two Line Element Set (TLE):
1 51016U 22002AJ  23271.77640294  .00020847  00000-0  67271-3 0  9990
2 51016  97.4272 340.3601 0007813 228.1404 131.9171 15.32138230 94681
Source of the keplerian elements: AFSPC